Location: Doughton Park
(36.4224°N, 81.1835°W)
Time: 16:54:22
(UTC-04:00)

Amateur Radio Satellites - All Passes

Search period start: 27 March 2015 16:24
Search period end: 28 March 2015 16:24
Location: Doughton Park, 36.4224°N, 81.1835°W

Satellite Date Start Highest point End Downlink Frequencies (MHz)
Time Altitude Azimuth
STARS 27 Mar 16:25:04 16:29:28 71° 102° (ESE) 16:33:51 437.465
SWISSCUBE 27 Mar 16:40:30 16:41:23 10° 296° (WNW) 16:41:59 437.505
BEESAT 27 Mar 16:43:49 16:44:46 10° 296° (WNW) 16:45:25 436.000
YUBILEINY 27 Mar 16:52:53 16:58:51 18° 296° (WNW) 17:04:20 435.215
SRMSAT 27 Mar 16:54:13 16:55:53 11° 169° (SSE) 16:57:38 437.500
HORYU 2 27 Mar 16:56:12 17:00:07 30° 264° (W) 17:04:00 437.375
JAS-2 27 Mar 16:58:35 17:05:15 89° 77° (ENE) 17:12:46 435.910
MOZHAYETS 4 27 Mar 17:07:52 17:10:45 17° 91° (E) 17:13:50
KKS-1 27 Mar 17:25:37 17:28:27 16° 292° (WNW) 17:31:06 437.445
PCSat 27 Mar 17:43:51 17:46:48 14° 315° (NW) 17:49:29 145.827
Cubesat XI-IV 27 Mar 17:45:16 17:48:43 18° 66° (ENE) 17:52:21 437.490
M-CUBED/EXP-1 PRIME 27 Mar 17:45:32 17:48:26 16° 95° (E) 17:51:30 437.505
CUTE-I 27 Mar 17:45:46 17:49:11 18° 66° (ENE) 17:52:49 437.470
JUGNU 27 Mar 17:45:49 17:49:12 15° 182° (S) 17:52:34 437.505
AO-7 27 Mar 17:47:31 17:55:01 35° 263° (W) 18:02:22 29.400- 29.500
AIST 1 27 Mar 17:48:07 17:49:43 12° 273° (W) 17:51:02
SRMSAT 27 Mar 18:40:57 18:44:17 15° 178° (S) 18:47:38 437.500
RS-15 27 Mar 18:43:22 18:51:43 28° 105° (ESE) 19:00:34 29.354- 29.394
MOZHAYETS 4 27 Mar 18:43:49 18:48:13 41° 287° (WNW) 18:52:33
JAS-2 27 Mar 18:48:04 18:51:35 14° 277° (W) 18:54:42 435.910
CUBESAT XI-V 27 Mar 18:49:14 18:51:41 15° 90° (E) 18:54:21 437.345
AUBIESAT-1 27 Mar 18:56:10 19:01:02 84° 107° (ESE) 19:05:47 437.475
PRISM 27 Mar 18:56:37 18:58:09 12° 91° (E) 18:59:55 437.425
GONETS M04 27 Mar 19:11:51 19:18:05 24° 84° (E) 19:24:45
M-CUBED/EXP-1 PRIME 27 Mar 19:18:53 19:23:36 51° 291° (WNW) 19:28:13 437.505
Cubesat XI-IV 27 Mar 19:23:11 19:28:26 54° 260° (W) 19:33:42 437.490
CUTE-I 27 Mar 19:23:39 19:28:53 54° 260° (W) 19:34:09 437.470
JUGNU 27 Mar 19:35:52 19:37:27 11° 192° (SSW) 19:38:56 437.505
BRITE-PL 27 Mar 19:45:32 19:46:50 11° 68° (ENE) 19:48:23 437.365/2234.400
BEESAT 3 27 Mar 19:48:40 19:51:49 21° 50° (NE) 19:55:00 437.485
HO-68 27 Mar 19:58:19 20:03:19 22° 61° (ENE) 20:08:36 435.675
SO-50 27 Mar 20:03:20 20:07:55 81° 118° (ESE) 20:12:41 436.795
AIST 2 27 Mar 20:10:03 20:11:39 12° 44° (NE) 20:13:25 435.215
CUTE 1.7 + AOD 2 27 Mar 20:13:20 20:13:46 10° 66° (ENE) 20:14:29 437.475
STRAND 1 27 Mar 20:22:21 20:27:29 77° 102° (ESE) 20:32:34 437.568
CUBESAT XI-V 27 Mar 20:25:00 20:29:28 46° 286° (WNW) 20:33:50 437.345
PRISM 27 Mar 20:29:57 20:33:58 46° 286° (WNW) 20:37:56 437.425
SRMSAT 27 Mar 20:29:58 20:32:41 13° 188° (S) 20:35:21 437.500
AUBIESAT-1 27 Mar 20:33:38 20:35:14 11° 301° (WNW) 20:36:33 437.475
DOVE 4 27 Mar 20:39:35 20:42:24 17° 70° (ENE) 20:45:18 437.250
GOMX 1 27 Mar 20:40:04 20:43:54 28° 73° (ENE) 20:47:38 467.674
SEEDS 27 Mar 20:42:56 20:45:54 19° 70° (ENE) 20:49:00 437.485
AAUSAT CUBESAT 2 27 Mar 20:43:59 20:46:02 14° 68° (ENE) 20:48:18 437.432
BEESAT 2 27 Mar 20:46:21 20:50:30 74° 59° (ENE) 20:54:33 435.950
RS-15 27 Mar 20:52:22 21:03:14 71° 303° (WNW) 21:14:18 29.354- 29.394
GONETS M04 27 Mar 21:05:42 21:14:19 64° 280° (W) 21:22:59
COMPASS 1 27 Mar 21:07:44 21:11:22 30° 72° (ENE) 21:15:04 437.405
BRITE-PL 27 Mar 21:20:10 21:25:02 65° 259° (W) 21:29:33 437.365/2234.400
BEESAT 3 27 Mar 21:26:16 21:29:56 31° 246° (WSW) 21:33:30 437.485
CUSAT 1 27 Mar 21:27:17 21:29:53 24° 97° (E) 21:32:12 437.405
CANX-2 27 Mar 21:30:44 21:34:57 83° 258° (WSW) 21:39:13 2200.000
HO-68 27 Mar 21:43:22 21:50:29 69° 257° (WSW) 21:57:39 435.675
CUTE 1.7 + AOD 2 27 Mar 21:45:03 21:49:13 61° 260° (W) 21:53:26 437.475
AIST 2 27 Mar 21:46:35 21:50:49 72° 242° (WSW) 21:54:57 435.215
SO-50 27 Mar 21:46:48 21:49:10 13° 318° (NW) 21:51:23 436.795
UKube-1 27 Mar 21:58:52 22:01:51 19° 69° (ENE) 22:04:57 .
DANDE 27 Mar 22:03:47 22:07:16 69° 98° (E) 22:10:06 436.750
STRAND 1 27 Mar 22:04:12 22:06:06 12° 297° (WNW) 22:07:42 437.568
DX 1 27 Mar 22:05:54 22:09:21 24° 70° (ENE) 22:12:54 434.975-435.025
DELFI C3 27 Mar 22:09:03 22:12:56 47° 75° (ENE) 22:16:53 145.870
CINEMA 3 27 Mar 22:09:30 22:13:46 85° 258° (WSW) 22:17:57 145.822/145.860
DOVE 4 27 Mar 22:15:56 22:20:01 34° 262° (W) 22:23:55 437.250
AAUSAT CUBESAT 2 27 Mar 22:17:23 22:21:21 43° 262° (W) 22:25:21 437.432
SEEDS 27 Mar 22:17:50 22:21:33 30° 264° (W) 22:25:15 437.485
GOMX 1 27 Mar 22:18:22 22:22:04 23° 265° (W) 22:25:30 467.674
HUMSAT D 27 Mar 22:18:37 22:21:27 19° 70° (ENE) 22:24:24 437.325/437.525
Oscar 11 27 Mar 22:27:41 22:31:59 76° 258° (WSW) 22:36:19 145.826/435.025
UWE-3 27 Mar 22:33:37 22:37:46 77° 77° (ENE) 22:41:55 435.000/436.395/437.385
CUBEBUG 2 27 Mar 22:34:32 22:38:42 83° 258° (WSW) 22:42:53 437.445
FUNcube-1 27 Mar 22:34:34 22:38:38 61° 76° (ENE) 22:42:44 145.935
VELOX 1 27 Mar 22:38:02 22:41:28 23° 69° (ENE) 22:44:59 145.980
AISAT 27 Mar 22:41:37 22:45:15 26° 70° (ENE) 22:48:57 437.250
COMPASS 1 27 Mar 22:44:08 22:47:08 19° 267° (W) 22:50:02 437.405
CUBEBUG 1 27 Mar 22:45:54 22:47:26 12° 66° (ENE) 22:49:11 437.445
ZACube-1 27 Mar 22:46:36 22:50:45 88° 82° (E) 22:54:55 437.345
TIGRISAT 27 Mar 22:54:00 22:55:59 13° 90° (E) 22:58:15 435.000
ESTCUBE 1 27 Mar 23:04:44 23:08:12 23° 70° (ENE) 23:11:49 437.505/2401.250
RS-15 27 Mar 23:10:09 23:18:16 22° 331° (NNW) 23:26:11 29.354- 29.394
ISS 27 Mar 23:15:26 23:18:15 28° 133° (SE) 23:21:07 145.825
ANTELSAT 27 Mar 23:21:41 23:25:36 28° 96° (E) 23:29:39 437.575/2403.000
50 SAT 27 Mar 23:25:45 23:29:38 82° 78° (ENE) 23:33:35 437.505
UKube-1 27 Mar 23:33:50 23:37:48 33° 263° (W) 23:41:44 .
DX 1 27 Mar 23:41:48 23:45:32 26° 264° (W) 23:49:10 434.975-435.025
QB50P1 27 Mar 23:43:19 23:46:37 23° 95° (E) 23:50:01 145.935-145.965
DUCHIFAT 1 27 Mar 23:46:14 23:49:37 24° 95° (E) 23:53:04 145.980
DELFI C3 27 Mar 23:47:09 23:48:28 11° 270° (W) 23:49:32 145.870
HUMSAT D 27 Mar 23:53:28 23:57:03 29° 264° (W) 00:00:38 437.325/437.525
QB50P2 27 Mar 23:57:03 00:00:53 33° 97° (E) 00:04:46 145.880/145.840
VELOX 1 28 Mar 00:14:01 00:17:55 29° 264° (W) 00:21:45 145.980
UNISAT 6 28 Mar 00:17:24 00:21:57 69° 284° (WNW) 00:26:35 437.425
AISAT 28 Mar 00:18:04 00:21:48 25° 265° (W) 00:25:27 437.250
CUBEBUG 1 28 Mar 00:19:00 00:23:22 58° 260° (W) 00:27:43 437.445
POPSAT HIP 1 28 Mar 00:26:00 00:30:13 75° 102° (ESE) 00:34:27 437.405
TIGRISAT 28 Mar 00:28:39 00:33:05 53° 285° (WNW) 00:37:36 435.000
TISAT 1 28 Mar 00:32:18 00:36:13 38° 73° (ENE) 00:40:09 437.305
BUGSAT 1 28 Mar 00:35:23 00:39:24 67° 101° (E) 00:43:24 437.445
SPROUT 28 Mar 00:35:34 00:39:43 50° 74° (ENE) 00:43:53 437.525
NANOSAT C BR1 28 Mar 00:37:25 00:41:38 79° 284° (WNW) 00:45:52 145.865
POLYITAN 1 28 Mar 00:39:55 00:44:09 72° 284° (WNW) 00:48:23 437.675
ESTCUBE 1 28 Mar 00:40:56 00:44:58 30° 264° (W) 00:48:57 437.505/2401.250
PCSat 28 Mar 00:47:48 00:52:53 40° 57° (ENE) 00:57:57 145.827
ISS 28 Mar 00:51:51 00:54:39 26° 328° (NNW) 00:57:26 145.825
ANTELSAT 28 Mar 00:58:32 01:02:19 25° 289° (WNW) 01:06:02 437.575/2403.000
YUBILEINY 28 Mar 01:05:51 01:13:45 37° 73° (ENE) 01:21:45 435.215
ITUPSAT 1 28 Mar 01:16:12 01:19:30 19° 68° (ENE) 01:22:58 437.325
QB50P1 28 Mar 01:18:57 01:22:29 25° 289° (WNW) 01:25:57 145.935-145.965
DUCHIFAT 1 28 Mar 01:21:58 01:25:24 24° 289° (WNW) 01:28:46 145.980
RS-15 28 Mar 01:31:31 01:36:47 14° 7° (N) 01:42:19 29.354- 29.394
QB50P2 28 Mar 01:33:40 01:36:35 18° 291° (WNW) 01:39:22 145.880/145.840
SWISSCUBE 28 Mar 02:03:15 02:08:00 67° 74° (ENE) 02:12:47 437.505
BEESAT 28 Mar 02:06:33 02:11:18 66° 75° (ENE) 02:16:05 436.000
TISAT 1 28 Mar 02:09:41 02:12:13 15° 268° (W) 02:14:34 437.305
SPROUT 28 Mar 02:14:27 02:16:09 12° 270° (W) 02:17:36 437.525
PCSat 28 Mar 02:31:42 02:36:06 25° 252° (WSW) 02:40:22 145.827
KKS-1 28 Mar 02:44:00 02:47:44 28° 71° (ENE) 02:51:34 437.445
ITUPSAT 1 28 Mar 02:52:36 02:57:08 40° 262° (W) 03:01:41 437.325
Oscar 19 28 Mar 02:52:44 02:57:55 75° 102° (ESE) 03:03:06 437.125/150
Gurwin Techsat 1B 28 Mar 02:55:02 02:58:35 19° 92° (E) 03:02:20 435.225
YUBILEINY 28 Mar 03:02:30 03:10:44 44° 271° (W) 03:18:46 435.215
STARS 28 Mar 03:19:38 03:23:47 44° 73° (ENE) 03:27:58 437.465
RS-15 28 Mar 03:44:33 03:54:24 33° 40° (NE) 04:04:53 29.354- 29.394
SWISSCUBE 28 Mar 03:45:03 03:46:25 11° 271° (W) 03:47:26 437.505
BEESAT 28 Mar 03:48:19 03:49:42 11° 271° (W) 03:50:44 436.000
ITAMSAT 1 28 Mar 03:54:26 03:59:38 89° 307° (NW) 04:04:49 435.822/435.867
AO-7 28 Mar 04:00:43 04:05:02 16° 89° (E) 04:09:57 29.400- 29.500
MOZHAYETS 4 28 Mar 04:08:47 04:10:37 13° 66° (ENE) 04:12:42
JAS-2 28 Mar 04:13:20 04:17:46 17° 85° (E) 04:22:28 435.910
KKS-1 28 Mar 04:20:50 04:24:24 23° 266° (W) 04:27:51 437.445
O/OREOS (USA 219) 28 Mar 04:29:33 04:33:34 32° 104° (ESE) 04:37:41 437.305
M-CUBED/EXP-1 PRIME 28 Mar 04:33:08 04:34:46 12° 60° (ENE) 04:36:38 437.505
Gurwin Techsat 1B 28 Mar 04:33:46 04:38:52 47° 288° (WNW) 04:43:56 435.225
Oscar 19 28 Mar 04:34:31 04:36:43 12° 296° (WNW) 04:38:38 437.125/150
AIST 1 28 Mar 04:35:13 04:39:06 32° 91° (E) 04:43:03
SO-50 28 Mar 04:37:21 04:41:58 38° 53° (NE) 04:46:33 436.795
HORYU 2 28 Mar 04:49:21 04:53:49 61° 101° (E) 04:58:16 437.375
STARS 28 Mar 04:58:07 05:00:32 14° 269° (W) 05:02:43 437.465
AUBIESAT-1 28 Mar 05:42:10 05:46:02 69° 72° (ENE) 05:50:18 437.475
MOZHAYETS 4 28 Mar 05:42:50 05:47:23 60° 260° (W) 05:51:58
ISS 28 Mar 05:45:16 05:47:24 16° 27° (NNE) 05:49:33 145.825
AO-7 28 Mar 05:50:39 05:59:00 89° 288° (WNW) 06:07:19 29.400- 29.500
CUBESAT XI-V 28 Mar 05:51:31 05:53:08 12° 66° (ENE) 05:55:02 437.345
JAS-2 28 Mar 05:56:02 06:03:51 81° 285° (WNW) 06:10:59 435.910
RS-15 28 Mar 05:56:32 06:08:07 77° 243° (WSW) 06:20:09 29.354- 29.394
M-CUBED/EXP-1 PRIME 28 Mar 06:05:23 06:09:09 52° 256° (WSW) 06:13:17 437.505
O/OREOS (USA 219) 28 Mar 06:09:25 06:13:04 22° 300° (WNW) 06:16:38 437.305
AIST 1 28 Mar 06:13:45 06:16:53 18° 287° (WNW) 06:19:53
SO-50 28 Mar 06:18:22 06:22:21 24° 249° (WSW) 06:26:10 436.795
HORYU 2 28 Mar 06:28:16 06:30:02 12° 294° (WNW) 06:31:33 437.375
VERMONT LUNAR 28 Mar 06:29:56 06:33:10 47° 154° (SSE) 06:36:25 437.305
PHONESAT 2.4 28 Mar 06:57:33 07:00:45 33° 150° (SSE) 07:03:58 2401.200-2431.200
PRISM 28 Mar 07:17:16 07:21:29 89° 81° (E) 07:25:44 437.425
GONETS M04 28 Mar 07:18:57 07:27:37 58° 79° (ENE) 07:36:18
ISS 28 Mar 07:20:53 07:24:05 60° 223° (SW) 07:27:14 145.825
CUBESAT XI-V 28 Mar 07:25:25 07:30:06 65° 260° (W) 07:34:48 437.345
STRAND 1 28 Mar 07:35:35 07:40:44 85° 73° (ENE) 07:45:55 437.568
Cubesat XI-IV 28 Mar 07:42:57 07:48:18 76° 102° (ESE) 07:53:37 437.490
CUTE-I 28 Mar 07:43:14 07:48:34 76° 102° (ESE) 07:53:53 437.470
JAS-2 28 Mar 07:43:24 07:47:45 16° 302° (WNW) 07:51:34 435.910
AO-7 28 Mar 07:45:26 07:50:52 19° 304° (NW) 07:55:54 29.400- 29.500
CUSAT 1 28 Mar 08:04:03 08:07:30 23° 78° (ENE) 08:11:52 437.405
VERMONT LUNAR 28 Mar 08:07:38 08:10:54 49° 349° (N) 08:14:11 437.305
RS-15 28 Mar 08:12:41 08:19:13 16° 259° (WSW) 08:24:47 29.354- 29.394
PHONESAT 2.4 28 Mar 08:35:30 08:39:00 61° 345° (NNW) 08:42:31 2401.200-2431.200
DANDE 28 Mar 08:43:49 08:47:39 42° 80° (E) 08:52:47 436.750
HO-68 28 Mar 09:14:37 09:20:24 27° 94° (E) 09:26:23 435.675
GONETS M04 28 Mar 09:16:49 09:23:59 28° 275° (W) 09:30:51
CANX-2 28 Mar 09:19:28 09:22:39 21° 93° (E) 09:25:57 2200.000
Cubesat XI-IV 28 Mar 09:25:26 09:27:50 13° 297° (WNW) 09:29:56 437.490
CUTE-I 28 Mar 09:25:40 09:28:05 13° 297° (WNW) 09:30:12 437.470
BRITE-PL 28 Mar 09:27:15 09:31:16 43° 99° (E) 09:35:28 437.365/2234.400
CUTE 1.7 + AOD 2 28 Mar 09:33:17 09:36:55 27° 95° (E) 09:40:37 437.475
VERMONT LUNAR 28 Mar 09:45:45 09:48:57 41° 6° (N) 09:52:11 437.305
CUSAT 1 28 Mar 09:46:17 09:50:13 30° 263° (W) 09:55:09 437.405
AAUSAT CUBESAT 2 28 Mar 10:03:06 10:06:57 34° 97° (E) 10:10:49 437.432
SEEDS 28 Mar 10:04:15 10:08:26 52° 99° (E) 10:12:37 437.485
CINEMA 3 28 Mar 10:06:49 10:10:32 27° 96° (E) 10:14:27 145.822/145.860
PHONESAT 2.4 28 Mar 10:14:18 10:17:40 41° 2° (N) 10:21:03 2401.200-2431.200
DOVE 4 28 Mar 10:16:28 10:20:47 69° 101° (E) 10:25:20 437.250
Oscar 11 28 Mar 10:18:12 10:21:40 23° 94° (E) 10:25:13 145.826/435.025
ANTELSAT 28 Mar 10:19:32 10:22:20 18° 69° (ENE) 10:25:17 437.575/2403.000
GOMX 1 28 Mar 10:21:06 10:25:21 68° 284° (WNW) 10:29:48 467.674
UWE-3 28 Mar 10:26:38 10:29:44 19° 93° (E) 10:33:03 435.000/436.395/437.385
FUNcube-1 28 Mar 10:26:41 10:29:04 15° 91° (E) 10:31:41 145.935
CUBEBUG 2 28 Mar 10:28:18 10:31:54 25° 95° (E) 10:35:40 437.445
DANDE 28 Mar 10:28:32 10:31:01 14° 264° (W) 10:33:33 436.750
COMPASS 1 28 Mar 10:28:47 10:33:03 84° 102° (ESE) 10:37:18 437.405
QB50P1 28 Mar 10:35:15 10:37:11 13° 67° (ENE) 10:39:19 145.935-145.965
DUCHIFAT 1 28 Mar 10:37:47 10:39:50 14° 68° (ENE) 10:42:06 145.980
ZACube-1 28 Mar 10:38:18 10:41:33 21° 94° (E) 10:44:58 437.345
BEESAT 2 28 Mar 10:38:44 10:42:06 25° 113° (ESE) 10:45:35 435.950
QB50P2 28 Mar 10:48:27 10:51:26 19° 69° (ENE) 10:54:30 145.880/145.840
CANX-2 28 Mar 10:54:52 10:58:38 29° 288° (WNW) 11:02:20 2200.000
HO-68 28 Mar 11:01:31 11:08:28 52° 291° (WNW) 11:15:20 435.675
BRITE-PL 28 Mar 11:07:22 11:09:34 14° 291° (WNW) 11:11:37 437.365/2234.400
50 SAT 28 Mar 11:08:00 11:09:39 13° 91° (E) 11:11:33 437.505
CUTE 1.7 + AOD 2 28 Mar 11:09:19 11:12:45 23° 289° (WNW) 11:16:04 437.475
UNISAT 6 28 Mar 11:14:03 11:18:18 77° 77° (ENE) 11:22:36 437.425
POPSAT HIP 1 28 Mar 11:16:30 11:20:25 39° 73° (ENE) 11:24:23 437.405
BEESAT 3 28 Mar 11:16:38 11:20:43 87° 122° (ESE) 11:24:52 437.485
BUGSAT 1 28 Mar 11:23:11 11:26:55 33° 73° (ENE) 11:30:41 437.445
VERMONT LUNAR 28 Mar 11:23:28 11:26:51 78° 201° (SSW) 11:30:13 437.305
UKube-1 28 Mar 11:23:37 11:27:47 46° 100° (E) 11:31:56 .
TIGRISAT 28 Mar 11:24:58 11:29:12 81° 258° (WSW) 11:33:31 435.000
DELFI C3 28 Mar 11:26:13 11:30:19 67° 284° (WNW) 11:34:21 145.870
NANOSAT C BR1 28 Mar 11:27:29 11:31:35 54° 75° (ENE) 11:35:42 145.865
POLYITAN 1 28 Mar 11:30:26 11:34:35 60° 75° (ENE) 11:38:44 437.675
DX 1 28 Mar 11:31:54 11:36:13 62° 102° (ESE) 11:40:30 434.975-435.025
HUMSAT D 28 Mar 11:39:28 11:43:36 50° 99° (E) 11:47:48 437.325/437.525
AAUSAT CUBESAT 2 28 Mar 11:39:29 11:42:22 18° 291° (WNW) 11:45:06 437.432
SEEDS 28 Mar 11:41:59 11:43:51 12° 293° (WNW) 11:45:30 437.485
AIST 2 28 Mar 11:42:08 11:46:10 44° 115° (ESE) 11:50:15 435.215
CINEMA 3 28 Mar 11:44:04 11:47:41 25° 289° (WNW) 11:51:20 145.822/145.860
PHONESAT 2.4 28 Mar 11:52:43 11:56:16 80° 18° (NNE) 11:59:50 2401.200-2431.200
Oscar 11 28 Mar 11:54:09 11:57:50 26° 289° (WNW) 12:01:26 145.826/435.025
ANTELSAT 28 Mar 11:55:02 11:58:55 34° 263° (W) 12:02:49 437.575/2403.000
FUNcube-1 28 Mar 12:01:29 12:05:38 43° 286° (WNW) 12:09:51 145.935
UWE-3 28 Mar 12:02:23 12:06:23 33° 287° (WNW) 12:10:24 435.000/436.395/437.385
CUBEBUG 2 28 Mar 12:04:51 12:08:34 26° 288° (WNW) 12:12:19 437.445
VELOX 1 28 Mar 12:06:29 12:10:52 63° 101° (E) 12:15:14 145.980
QB50P1 28 Mar 12:08:39 12:12:43 46° 261° (W) 12:16:47 145.935-145.965
AISAT 28 Mar 12:10:33 12:14:58 74° 102° (ESE) 12:19:21 437.250
CUBEBUG 1 28 Mar 12:10:51 12:14:39 30° 96° (E) 12:18:29 437.445
DUCHIFAT 1 28 Mar 12:11:20 12:15:22 43° 261° (W) 12:19:23 145.980
ZACube-1 28 Mar 12:14:05 12:17:59 31° 288° (WNW) 12:21:52 437.345
BEESAT 2 28 Mar 12:16:41 12:20:12 26° 308° (NW) 12:23:41 435.950
QB50P2 28 Mar 12:23:24 12:27:09 30° 263° (W) 12:30:53 145.880/145.840
SPROUT 28 Mar 12:27:43 12:28:21 10° 89° (E) 12:29:16 437.525
ESTCUBE 1 28 Mar 12:35:37 12:40:07 68° 101° (E) 12:44:36 437.505/2401.250
50 SAT 28 Mar 12:41:01 12:44:50 41° 286° (WNW) 12:48:39 437.505
POPSAT HIP 1 28 Mar 12:54:07 12:56:33 14° 269° (W) 12:58:46 437.405
BUGSAT 1 28 Mar 12:59:45 13:02:32 17° 267° (W) 13:05:10 437.445
UKube-1 28 Mar 13:01:15 13:03:35 14° 293° (WNW) 13:05:44 .
VERMONT LUNAR 28 Mar 13:02:12 13:04:14 15° 215° (SW) 13:06:11 437.305
NANOSAT C BR1 28 Mar 13:06:58 13:07:51 10° 270° (W) 13:08:27 145.865
DX 1 28 Mar 13:10:53 13:12:00 11° 295° (WNW) 13:12:51 434.975-435.025
HUMSAT D 28 Mar 13:17:05 13:19:00 13° 293° (WNW) 13:20:44 437.325/437.525
AIST 2 28 Mar 13:22:01 13:25:01 18° 312° (NW) 13:27:54 435.215
PHONESAT 2.4 28 Mar 13:31:32 13:34:24 22° 213° (SSW) 13:37:14 2401.200-2431.200
ITAMSAT 1 28 Mar 13:34:13 13:36:05 12° 63° (ENE) 13:38:15 435.822/435.867
VELOX 1 28 Mar 13:45:44 13:46:58 11° 295° (WNW) 13:47:56 145.980
CUBEBUG 1 28 Mar 13:47:37 13:50:52 20° 291° (WNW) 13:54:00 437.445
TISAT 1 28 Mar 13:54:48 13:59:00 79° 284° (WNW) 14:03:12 437.305
SPROUT 28 Mar 14:00:40 14:04:52 55° 285° (WNW) 14:09:03 437.525
YUBILEINY 28 Mar 14:03:15 14:11:23 46° 89° (E) 14:19:42 435.215
Oscar 19 28 Mar 14:07:03 14:12:09 83° 76° (ENE) 14:17:18 437.125/150
SWISSCUBE 28 Mar 14:07:07 14:10:38 21° 93° (E) 14:14:18 437.505
BEESAT 28 Mar 14:10:19 14:13:50 21° 93° (E) 14:17:28 436.000
Gurwin Techsat 1B 28 Mar 14:13:38 14:17:44 24° 68° (ENE) 14:22:00 435.225
ESTCUBE 1 28 Mar 14:15:25 14:16:29 11° 295° (WNW) 14:17:17 437.505/2401.250
O/OREOS (USA 219) 28 Mar 14:41:44 14:46:01 40° 65° (ENE) 14:50:16 437.305
ITUPSAT 1 28 Mar 14:55:30 15:00:16 63° 101° (E) 15:05:01 437.325
AO-7 28 Mar 14:57:23 15:02:50 21° 57° (ENE) 15:08:38 29.400- 29.500
ITAMSAT 1 28 Mar 15:09:48 15:15:01 77° 256° (WSW) 15:20:16 435.822/435.867
PCSat 28 Mar 15:26:35 15:31:53 61° 114° (ESE) 15:37:16 145.827
JUGNU 28 Mar 15:42:54 15:45:55 14° 173° (S) 15:48:58 437.505
SWISSCUBE 28 Mar 15:44:16 15:48:38 35° 289° (WNW) 15:52:55 437.505
HORYU 2 28 Mar 15:45:21 15:49:29 40° 72° (ENE) 15:53:40 437.375
BEESAT 28 Mar 15:47:25 15:51:48 35° 289° (WNW) 15:56:07 436.000
Gurwin Techsat 1B 28 Mar 15:52:35 15:57:32 38° 263° (W) 16:02:28 435.225
YUBILEINY 28 Mar 16:00:28 16:08:25 36° 288° (WNW) 16:16:16 435.215
JAS-2 28 Mar 16:04:34 16:10:38 37° 67° (ENE) 16:17:25 435.910
KKS-1 28 Mar 16:13:21 16:17:49 83° 105° (ESE) 16:22:16 437.445
